{"data":{"norad_id":58895,"intl_designator":"2024-020V","name":"STARLINK-31218","alt_names":[],"object_type":"PAYLOAD","status":"ACTIVE","operator":null,"country":"US","launch_date":"2024-01-29","launch_site_code":"AFWTR","launch_vehicle":null,"mission":null,"orbit_class":"UNKNOWN","rcs_meters":null,"size_class":null,"mass_kg":null,"dimensions":null,"purposes":["comms"],"wikipedia_slug":null,"has_3d_model":false,"image_url":null,"decayed_at":null,"tle_current":{"epoch":"2026-09-20T22:22:19.244352Z","epoch_age_seconds":118976,"freshness":"FRESH","line1":"1 58895U 24020V   26263.93216718  .00000143  00000+0  16377-4 0  9994","line2":"2 58895  53.1596 134.1177 0001256  91.8579 268.2566 15.31707067147984","mean_motion":15.31707067,"eccentricity":0.0001256,"inclination_deg":53.1596,"raan_deg":134.1177,"arg_perigee_deg":91.8579,"mean_anomaly_deg":268.2566,"bstar":1.6377e-5,"rev_number":14798,"period_min":94.012754202433,"perigee_km":469.85871264271,"apogee_km":471.57914525206,"semimajor_km":6848.8559289474,"source":"CELESTRAK","updated_at":"2026-09-21T09:00:33.995366Z"}}}